Content
SEND FEEDBACK

Daily
Averages
Monthly
Summary
United Kingdom

GRAVESEND, ENGLAND


Home > Europe > United Kingdom > England
Elevation: 16 feet     Latitude: 51 26N     Longitude: 000 23E

WEATHER
 
SELECT A DAY
Number of Records: 213,480;   Date Range: 7/1/96 - 10/20/14
 
SHARE

PRINT THIS DATA

[ ← Previous Day ]
WEATHER ALMANAC - DECEMBER 25, 2013
[ Next Day → ]
[ °C ]   °F
Weather ElementAverageHighLow
Temperature42.1 °F44.6 °F (10:20 am)39.2 °F (6:50 pm)
Dewpoint36.8 °F39.2 °F (1:20 pm)33.8 °F (8:50 am)
Humidity81.9 %93 % (6:50 pm)71 % (10:20 am)
Barometer29.08 in29.18 in (8:50 pm)28.94 in (12:50 am)
Wind Speed7.3 mph13.8 mph (8:20 am)
Weather ElementAverage
Visibility6.2 mi
Wind DirectionS (180.9 °)

Weather ElementTotal
Precipitation---
Heating Degree Days23.1 (Base 65)
Averaged from 47 records on December 25, 2013
WEATHER CONDITIONS BREAKOUT
WIND DIRECTION BREAKOUT
WEATHER BY HOUR - DECEMBER 25, 2013
[ °C ]   °F
Local TimeTemperatureDewpointHumidityBarometerVisibilityWind DirectionWind SpeedGust SpeedPrecipitationEventsConditions
12:50 AM42.8 °F37.4 °F81 %28.94 in6.2 miWSW (240°)9.2 mph
1:20 AM42.8 °F37.4 °F81 %28.94 in6.2 miWSW (240°)10.4 mph
1:50 AM42.8 °F37.4 °F81 %28.97 in6.2 miSW (220°)5.8 mphScattered Clouds
2:20 AM42.8 °F37.4 °F81 %28.97 in6.2 miSW (230°)10.4 mphRainLight Rain
2:50 AM41.0 °F37.4 °F87 %28.97 in6.2 miSSW (210°)8.1 mphPartly Cloudy
3:20 AM41.0 °F37.4 °F87 %28.97 in6.2 miSSW (200°)8.1 mph
3:50 AM41.0 °F37.4 °F87 %28.97 in6.2 miSSW (200°)9.2 mph
4:20 AM41.0 °F35.6 °F81 %29.00 in6.2 miSSW (210°)9.2 mph
4:50 AM41.0 °F35.6 °F81 %29.00 in6.2 miSSW (210°)9.2 mph
5:20 AM41.0 °F35.6 °F81 %29.00 in6.2 miSSW (210°)10.4 mph
5:50 AM41.0 °F35.6 °F81 %29.00 in6.2 miSouth (190°)9.2 mph
6:20 AM41.0 °F35.6 °F81 %29.03 in6.2 miSouth (190°)8.1 mph
6:50 AM41.0 °F35.6 °F81 %29.03 in6.2 miSouth (190°)9.2 mph
7:20 AM42.8 °F35.6 °F76 %29.03 in6.2 miSSW (210°)11.5 mph
7:50 AM42.8 °F35.6 °F76 %29.03 in6.2 miSW (230°)11.5 mph
8:20 AM42.8 °F35.6 °F76 %29.06 in6.2 miSW (220°)13.8 mph
8:50 AM41.0 °F33.8 °F76 %29.06 in6.2 miSSW (210°)11.5 mph
9:20 AM41.0 °F33.8 °F76 %29.09 in6.2 miSSW (200°)9.2 mph
9:50 AM42.8 °F35.6 °F76 %29.09 in6.2 miSSW (210°)8.1 mph
10:20 AM44.6 °F35.6 °F71 %29.09 in6.2 miSSW (200°)6.9 mphPartly Cloudy
10:50 AM42.8 °F37.4 °F81 %29.09 in6.2 miSSW (210°)11.5 mphRainRain
11:20 AM42.8 °F37.4 °F81 %29.09 in6.2 miSSW (210°)8.1 mph
11:50 AM42.8 °F37.4 °F81 %29.09 in6.2 miSSW (200°)5.8 mph
12:20 PM44.6 °F37.4 °F76 %29.09 in6.2 miSSW (210°)6.9 mphPartly Cloudy
12:50 PM44.6 °F37.4 °F76 %29.09 in6.2 miSSW (210°)4.6 mphPartly Cloudy
1:20 PM44.6 °F39.2 °F81 %29.09 in6.2 miSW (220°)3.5 mphScattered Clouds
1:50 PM44.6 °F37.4 °F76 %29.09 in6.2 miSSW (200°)4.6 mphScattered Clouds
2:20 PM44.6 °F37.4 °F76 %29.12 in6.2 miSSW (210°)4.6 mph
2:50 PM44.6 °F37.4 °F76 %29.12 in6.2 miSouth (170°)5.8 mph
3:20 PM42.8 °F37.4 °F81 %29.12 in6.2 miSouth (170°)5.8 mph
3:50 PM42.8 °F35.6 °F76 %29.15 in6.2 miSSE (160°)4.6 mph
4:20 PM44.6 °F35.6 °F71 %29.15 in6.2 miSouth (170°)4.6 mph
4:50 PM42.8 °F37.4 °F81 %29.15 in6.2 miSE (140°)4.6 mph
5:20 PM42.8 °F35.6 °F76 %29.15 in6.2 miSE (140°)4.6 mph
5:50 PM42.8 °F37.4 °F81 %29.15 in6.2 miSE (130°)4.6 mph
6:20 PM41.0 °F35.6 °F81 %29.15 in6.2 miESE (110°)5.8 mph
6:50 PM39.2 °F37.4 °F93 %29.15 in6.2 miEast (100°)6.9 mph
7:20 PM39.2 °F35.6 °F87 %29.15 in6.2 miEast (100°)5.8 mphPartly Cloudy
7:50 PM41.0 °F37.4 °F87 %29.15 in6.2 miEast (80°)6.9 mphPartly Cloudy
8:20 PM39.2 °F35.6 °F87 %29.15 in6.2 miESE (110°)5.8 mph
8:50 PM41.0 °F37.4 °F87 %29.18 in6.2 miEast (90°)4.6 mphPartly Cloudy
9:20 PM39.2 °F37.4 °F93 %29.18 in6.2 miESE (110°)4.6 mphScattered Clouds
9:50 PM41.0 °F39.2 °F93 %29.18 in5.0 miVariable3.5 mphRainLight Rain
10:20 PM41.0 °F39.2 °F93 %29.18 in6.2 miNorth (350°)3.5 mphRainLight Rain
10:50 PM41.0 °F39.2 °F93 %29.18 in6.2 miESE (120°)4.6 mphRainLight Rain Showers
11:20 PM41.0 °F39.2 °F93 %29.18 in6.2 miEast (90°)6.9 mphRainLight Rain Showers
11:50 PM41.0 °F39.2 °F93 %29.18 in6.2 miWest (270°)11.5 mphRainLight Rain Showers
Hourly data recorded from EGLC, located miles away from Gravesend, England







STORIES FROM OUR PARTNERS